Temp
24 24 23 23 22 22 22 22 22 23 23 23 23 23 23 23 22 22 22 22 21 21 21 21 21 20 20 21 21 21 21 21 21 22 22 22 22 23 23 23 24 24 24 24 24 24 24 24 24 24 24 24 24 24 24 24 24 24 24 24 24 24 23
24 24 23 23 23 23 23 22 23 23 23 23 23 23 23 23 22 22 22 22 21 21 21 21 21 21 21 21 21 21 22 22 22 22 23 23 23 23 24 24 24 24 24 24 24 24 24 24 24 24 24 24 24 24 24 23 24 24 24 23 23 23 23
24 24 24 24 24 24 23 23 23 24 24 23 23 23 23 23 23 22 22 22 22 21 21 21 21 21 21 22 22 22 22 22 23 23 23 24 24 24 24 24 24 24 24 24 24 24 25 24 24 24 24 24 23 23 23 23 23 23 23 23 23 23 23
25 24 24 24 24 24 24 24 24 24 24 24 24 24 23 23 23 22 22 22 22 21 21 21 21 22 22 22 22 22 23 23 23 23 24 24 24 24 24 24 24 24 25 25 25 24 25 24 24 24 24 24 23 23 23 23 23 23 23 23 23 22 22
25 25 25 25 25 25 24 24 24 25 24 24 24 24 23 23 23 22 22 22 22 21 21 21 22 22 22 22 23 23 23 23 23 24 24 24 24 24 25 25 25 25 25 25 25 24 24 24 24 24 24 24 23 23 23 23 23 22 22 22 22 22 22
25 25 25 25 25 25 25 24 25 25 25 24 24 24 23 23 23 22 22 22 22 22 22 22 22 22 22 22 23 23 23 24 24 24 24 24 24 24 25 25 25 25 25 25 25 25 25 24 24 24 23 23 23 23 23 23 22 22 22 22 22 22 21
25 25 25 25 26 26 25 25 25 26 25 25 24 24 24 24 23 23 22 22 22 22 22 22 22 22 23 23 23 24 24 24 24 24 24 25 25 25 25 25 25 25 25 25 25 25 25 24 24 23 23 23 23 23 22 22 22 22 22 22 22 21 22
25 25 25 25 26 26 25 25 26 25 25 25 24 24 24 24 24 23 23 23 22 23 23 22 23 23 23 23 23 24 24 24 24 25 25 25 25 25 25 25 25 24 24 24 24 24 24 24 23 23 23 23 22 22 22 22 22 22 22 22 21 21 21
25 25 26 26 26 26 25 25 26 25 25 25 25 24 24 24 24 23 23 23 23 23 23 23 23 23 23 23 24 24 24 24 25 25 25 25 25 24 24 24 24 24 24 24 24 23 23 23 23 23 23 22 22 22 22 22 22 21 21 21 21 21 21
26 26 26 26 26 26 25 25 26 25 25 25 25 25 24 24 24 23 23 23 23 23 23 23 23 23 23 24 24 24 24 25 25 25 25 25 24 24 24 24 24 24 24 24 23 23 23 23 23 23 23 22 22 22 22 22 21 21 21 21 21 21 20
26 26 26 27 26 26 25 25 25 25 25 25 24 24 24 24 24 24 23 23 23 23 23 23 23 23 24 24 24 24 25 25 25 25 25 25 24 24 24 24 24 24 23 23 23 23 23 23 22 22 22 22 22 22 22 21 21 21 21 21 20 20 20
26 26 26 26 26 25 25 25 24 24 25 25 24 25 24 24 24 24 23 23 23 24 23 23 23 24 24 24 24 25 25 25 24 24 25 24 24 24 24 24 24 23 23 23 23 23 22 22 22 22 22 22 22 22 21 21 21 21 21 20 20 20 20
26 26 26 26 25 25 25 24 23 22 22 22 22 23 24 24 24 24 24 24 24 24 24 24 24 24 24 24 25 25 25 25 24 24 24 24 24 24 24 24 23 23 23 23 23 22 22 22 22 22 22 22 22 22 21 21 21 21 20 20 20 20 20
26 26 26 25 25 24 24 23 22 20 20 20 20 21 23 24 24 24 24 24 24 24 24 24 24 24 24 24 25 25 25 24 24 24 24 24 24 24 23 23 23 23 23 23 22 22 22 22 22 22 22 22 22 22 21 21 21 20 20 20 20 20 20
26 26 25 24 24 23 24 24 23 20 19 20 20 21 22 24 24 24 24 24 24 24 24 24 24 24 24 24 25 24 24 24 24 24 24 24 23 23 23 23 23 23 22 22 22 22 21 21 21 21 22 22 22 21 21 20 20 20 20 19 19 19 19
26 25 25 24 23 23 24 23 21 19 19 20 20 21 22 23 24 24 24 24 24 24 24 24 24 24 24 24 24 24 24 24 23 23 23 23 23 23 23 23 22 22 22 22 22 21 21 21 21 21 22 21 21 21 21 20 20 20 19 19 19 19 19
25 25 24 24 23 23 22 21 20 19 20 20 20 21 23 23 24 24 24 24 24 24 24 24 24 24 24 24 24 24 24 24 24 23 23 23 23 23 22 22 22 22 22 21 21 21 21 21 21 21 21 21 21 21 20 20 20 20 19 19 19 19 19
25 25 24 24 23 22 22 21 20 20 20 20 21 22 23 23 24 24 24 24 24 24 24 24 24 24 24 24 24 23 24 23 24 23 23 22 22 22 22 22 21 21 21 21 21 21 21 21 21 21 21 21 21 20 20 20 20 19 19 19 19 18 18
24 24 25 24 23 22 21 21 20 20 20 21 22 23 23 24 24 24 24 24 24 24 24 24 24 24 24 24 23 24 24 23 23 23 22 22 22 22 22 21 21 21 21 21 21 21 21 21 21 21 21 21 21 20 20 20 19 19 19 19 19 18 18
24 24 24 23 23 22 21 20 20 20 21 22 23 23 24 24 25 24 24 24 24 24 24 24 24 24 24 24 24 24 23 23 23 22 22 22 22 22 22 21 21 21 21 21 21 21 21 21 21 21 21 21 21 20 20 20 19 19 19 19 19 19 18
24 24 24 23 23 22 21 20 20 20 21 22 23 24 24 24 25 24 24 24 24 24 24 24 24 24 24 24 24 23 23 23 23 22 22 22 22 22 22 21 21 21 21 21 21 21 21 21 21 21 21 21 20 20 20 19 19 19 19 19 19 18 18
24 24 24 23 22 22 21 21 20 21 22 22 23 24 24 24 24 24 24 24 24 24 24 24 24 24 24 24 23 23 23 23 22 22 22 22 21 21 21 21 21 21 21 21 21 21 21 21 21 21 20 20 20 20 20 19 19 19 19 19 18 18 17
24 24 23 22 22 22 22 22 21 21 22 23 23 24 24 24 24 24 24 24 24 24 24 24 23 24 24 24 23 23 23 23 22 22 22 21 21 21 21 21 21 21 21 21 21 21 21 21 21 20 20 20 20 20 20 19 19 19 18 18 17 17 17
24 23 22 22 23 23 22 22 21 21 22 23 23 24 24 24 24 24 24 24 24 24 24 23 23 24 24 23 23 23 23 22 22 22 21 21 21 21 21 21 21 21 21 21 21 21 21 21 20 20 20 20 20 20 20 20 20 19 18 17 17 17 17
23 23 23 24 24 24 22 21 21 21 22 23 23 24 24 24 24 24 24 24 24 24 24 23 23 24 24 23 23 23 23 22 22 22 21 21 21 21 21 21 21 21 21 21 21 21 21 21 20 20 20 20 20 20 20 20 19 18 17 17 17 17 17
23 23 23 24 24 24 23 22 21 22 23 23 24 24 25 24 24 24 24 24 24 23 24 24 24 24 23 23 23 23 22 22 22 22 21 21 21 21 21 21 21 21 21 21 21 21 21 21 20 20 20 20 20 19 19 19 18 17 17 17 17 17 17
24 23 23 23 23 23 23 22 22 23 23 24 24 25 25 25 24 24 23 24 23 23 24 24 24 24 23 23 23 22 22 22 22 22 21 21 21 21 21 21 21 21 21 21 21 21 21 21 20 20 20 19 19 19 19 18 18 17 17 17 17 17 16
24 24 24 24 23 23 22 22 23 23 24 24 25 25 25 25 24 23 23 23 23 23 24 24 24 23 23 23 22 22 22 22 22 22 21 21 21 21 21 21 21 21 21 21 21 21 20 20 20 19 19 19 19 19 18 17 17 17 17 17 17 16 15
25 25 25 25 24 24 23 23 24 24 24 25 25 25 25 24 24 23 23 23 24 24 24 24 23 23 23 22 22 22 22 22 22 21 21 21 21 21 21 21 21 21 21 21 20 20 20 20 20 19 19 19 18 18 17 17 17 17 17 16 16 16 16
25 26 26 26 25 25 24 24 24 24 24 25 25 25 25 24 24 23 23 23 24 24 23 23 23 23 22 22 22 22 22 22 22 21 21 21 21 21 21 21 21 21 21 20 20 20 20 20 20 19 19 18 18 17 17 17 17 16 16 16 16 16 16
26 26 26 26 25 25 25 25 25 24 24 25 25 25 25 25 24 23 23 23 23 23 23 23 23 23 22 22 22 22 22 22 21 21 21 21 21 22 21 21 21 21 20 20 20 20 20 19 19 19 19 18 17 17 17 17 16 16 16 16 16 16 16
26 26 26 26 26 25 25 25 25 25 24 24 25 25 25 25 24 24 23 23 23 23 23 23 23 23 22 22 22 22 22 22 22 22 21 21 21 21 21 21 21 21 21 20 20 20 20 19 19 18 18 18 17 17 17 17 16 16 16 16 16 17 16
25 25 26 25 25 26 25 25 25 25 24 24 24 25 25 24 24 24 23 23 23 23 23 23 23 23 22 22 22 22 22 22 22 21 21 21 21 21 21 21 21 21 21 20 20 20 20 19 19 18 18 17 17 17 17 17 17 17 17 17 17 17 17
22 23 22 22 23 24 25 25 25 24 24 24 24 24 24 24 24 24 23 23 23 23 23 23 23 23 22 22 22 22 22 22 22 21 21 21 21 21 21 21 21 21 20 20 20 19 19 19 18 18 17 17 17 17 17 17 17 17 16 16 17 17 17
21 21 21 21 21 21 22 24 25 24 24 24 24 24 24 24 24 24 23 23 23 23 23 23 23 23 22 22 22 22 22 22 22 21 21 21 21 21 21 21 21 20 20 20 19 19 19 18 18 18 17 17 17 17 17 17 17 17 17 17 17 17 17
22 22 22 22 22 21 21 22 24 24 23 23 24 24 24 24 24 24 24 24 24 23 23 23 23 22 22 22 22 22 22 22 22 22 22 22 21 21 21 20 20 20 20 20 19 19 18 18 18 18 17 17 17 17 17 17 17 17 17 17 17 17 17
22 22 22 22 22 21 20 20 23 24 23 23 24 24 24 24 24 24 24 24 24 23 23 23 22 22 22 22 22 22 22 22 22 22 22 21 21 21 21 21 20 20 20 19 19 19 18 18 18 18 17 17 17 17 17 17 17 17 17 17 17 17 17
22 22 22 22 22 21 20 19 21 23 24 24 24 24 23 23 23 24 24 24 23 23 23 23 23 22 22 22 22 22 22 22 22 22 21 21 21 21 21 21 20 20 20 19 19 19 18 18 18 18 17 17 17 17 17 18 18 17 17 17 17 17 17
Height
782 781 781 781 781 782 782 783 785 787 788 789 790 791 791 792 793 793 794 795 795 796 797 797 798 798 798 798 798 799 800 802 803 804 804 805 806 807 807 807 808 808 809 810 811 812 812 812 813 813 813 813 813 813 813 813 813 813 812 812 811 811 810
783 783 782 782 783 783 783 784 786 787 789 790 790 791 792 792 793 794 795 796 796 797 798 798 798 799 799 799 799 800 801 802 802 803 804 805 806 806 807 807 808 809 810 810 811 812 812 813 813 813 813 813 813 814 814 814 814 814 813 812 812 811 811
783 784 782 783 783 783 784 785 786 787 788 790 790 792 793 793 794 795 796 797 798 799 799 800 800 800 800 800 800 801 801 802 803 803 804 804 805 806 807 808 808 808 809 810 811 812 812 813 813 813 813 813 814 814 814 814 814 814 813 813 812 811 811
783 783 783 784 784 784 785 785 787 788 789 790 791 792 794 795 796 797 799 800 800 801 801 801 802 801 802 801 801 802 802 803 803 804 804 805 806 808 808 807 808 808 808 809 811 812 812 813 812 813 813 814 814 814 814 814 814 814 813 812 812 811 811
783 783 784 785 785 786 787 787 788 789 790 792 793 794 795 796 798 799 801 801 802 802 802 803 804 803 804 803 803 803 803 803 804 804 805 806 808 809 808 808 808 808 809 810 811 812 812 813 813 813 813 814 814 814 814 814 814 814 813 813 812 812 811
783 782 783 784 785 786 786 787 788 789 791 792 793 796 797 798 800 800 802 802 802 804 804 805 805 805 805 805 805 805 805 805 805 806 807 808 809 810 809 809 810 810 811 811 812 813 812 813 813 813 814 814 814 814 814 814 814 814 814 813 813 812 812
781 781 782 782 782 784 784 785 787 788 790 791 793 796 797 799 800 801 802 803 803 805 805 806 807 807 807 807 807 807 807 807 807 807 808 809 809 810 811 811 811 811 812 812 813 813 813 813 813 814 814 815 815 814 814 815 814 815 814 814 814 813 813
780 780 781 781 781 782 782 783 785 787 788 790 792 794 796 798 800 801 803 804 805 806 806 807 808 808 809 808 809 809 808 809 809 809 809 809 810 811 812 812 812 812 813 813 814 814 814 814 814 814 815 815 815 814 815 815 815 815 815 814 815 814 814
780 782 782 782 782 782 783 784 785 787 788 790 792 794 796 797 799 801 803 804 806 807 807 808 809 809 810 810 810 810 810 810 810 810 810 810 811 812 812 813 813 813 813 814 814 815 815 815 815 815 815 815 815 815 815 815 815 815 815 815 815 815 814
781 783 783 782 783 783 784 786 787 789 790 792 794 795 797 798 799 801 802 804 806 807 808 809 810 811 811 811 811 811 811 812 812 811 811 812 813 813 813 814 814 814 814 815 815 815 815 815 815 815 815 815 815 815 816 816 816 816 816 816 816 815 815
781 782 782 784 785 785 787 788 790 792 794 795 796 798 799 799 800 801 802 803 804 806 808 809 810 811 812 812 812 812 812 813 813 813 813 813 814 814 814 815 815 815 815 815 816 815 815 815 815 816 816 816 816 816 816 816 817 817 817 817 816 816 815
780 781 783 785 786 788 789 790 792 795 797 798 799 800 801 802 802 802 803 803 804 805 807 809 810 812 812 813 813 813 814 814 814 815 814 814 815 815 815 815 815 816 816 816 816 816 816 816 816 816 816 816 816 816 817 817 817 817 817 817 817 816 816
780 781 783 784 785 788 790 792 794 797 800 805 807 806 804 803 804 804 804 804 804 805 806 808 810 811 813 814 814 814 815 815 815 816 815 815 815 816 816 816 816 816 816 817 816 816 817 816 817 816 816 817 817 817 817 817 818 818 818 818 817 816 816
780 781 782 782 783 786 788 790 791 791 792 798 805 809 807 804 804 804 804 804 805 806 807 808 810 811 813 814 815 815 816 816 817 816 816 816 816 816 817 816 817 817 817 817 817 817 817 817 817 817 817 817 817 817 817 817 818 818 818 818 817 816 815
780 781 782 784 786 785 785 785 784 785 786 786 789 796 801 803 803 803 804 805 805 806 807 808 809 811 812 814 815 816 817 817 817 817 817 817 816 817 817 817 817 817 817 817 817 817 817 817 817 817 817 818 817 817 817 818 818 818 818 817 817 816 815
782 784 785 786 787 785 781 780 781 782 784 786 786 786 792 798 800 801 803 804 805 806 807 808 809 810 812 813 815 816 817 818 818 817 817 817 817 817 817 817 817 817 817 817 817 817 817 817 817 817 818 818 817 818 817 818 818 818 818 817 816 816 815
784 786 786 785 785 784 781 780 781 779 777 783 787 786 788 793 796 799 802 802 804 806 807 809 809 810 812 813 815 817 817 818 818 818 818 817 818 818 817 818 817 817 817 817 817 817 817 817 817 817 818 817 817 818 818 818 818 818 817 817 816 815 814
782 783 783 783 783 783 780 779 779 775 772 777 783 785 788 790 794 798 800 801 804 805 807 809 809 811 813 814 816 817 817 818 818 818 818 818 818 818 818 818 817 817 817 817 817 817 816 817 817 817 817 817 817 818 818 818 818 817 817 816 815 815 813
779 780 779 779 778 777 775 774 772 768 768 772 777 781 785 788 791 796 798 800 803 804 806 808 809 812 813 814 816 816 817 818 818 818 819 818 818 818 817 818 817 817 817 816 816 817 816 817 817 816 816 816 817 818 818 818 818 817 816 815 814 814 813
776 776 775 774 773 771 769 768 765 762 765 771 774 778 784 787 789 794 796 799 802 803 806 808 810 812 813 814 816 816 817 818 818 818 819 818 818 818 817 818 817 817 817 816 816 817 817 817 816 816 816 816 817 818 817 817 817 816 816 815 814 813 812
773 772 771 771 769 767 766 768 768 762 763 771 775 777 783 787 789 792 796 798 801 803 805 808 810 811 813 814 815 816 817 818 818 818 818 818 818 818 817 818 817 817 817 817 817 817 816 816 816 816 817 817 817 817 817 817 816 816 815 814 813 812 811
769 768 767 766 767 767 767 775 780 772 767 771 775 777 782 786 789 792 795 797 800 802 805 808 810 811 812 814 815 816 817 817 818 818 818 818 818 818 818 817 817 817 817 817 817 817 817 817 817 817 818 818 817 817 816 816 815 815 814 813 812 812 811
763 764 765 766 770 771 770 777 782 780 776 776 777 779 782 786 789 792 795 797 800 802 805 807 809 811 812 813 814 815 816 817 817 818 818 818 818 818 818 817 817 818 818 818 818 818 818 818 818 818 818 817 817 817 816 816 815 814 814 813 812 811 810
762 765 767 768 770 772 773 776 779 781 781 780 780 782 783 786 790 792 795 798 799 802 805 807 808 810 811 813 814 815 816 817 817 818 818 818 818 818 818 817 818 818 818 818 818 818 818 818 818 818 818 817 817 816 816 815 814 814 813 812 811 810 808
763 766 768 768 768 770 772 776 779 781 782 782 783 783 785 788 791 793 796 798 800 802 804 806 808 809 811 813 814 815 816 817 817 818 818 818 818 818 819 818 818 819 819 819 819 818 818 818 818 818 817 817 817 816 815 815 814 813 812 811 810 809 808
762 765 767 768 769 770 772 775 778 780 781 782 783 784 786 789 792 795 798 799 801 803 804 805 808 809 811 812 813 815 816 816 817 818 818 819 819 819 819 819 819 819 819 819 819 819 818 818 818 818 817 817 816 816 815 814 813 813 812 811 810 809 807
763 764 766 768 769 770 772 775 776 778 780 781 782 784 787 789 792 796 799 801 802 803 805 807 808 809 811 812 813 815 816 816 818 818 818 819 819 819 820 820 820 820 819 819 819 819 819 819 818 818 817 817 816 815 815 814 813 813 812 811 809 808 806
764 765 766 768 770 771 773 775 777 778 779 781 783 785 787 790 794 797 799 801 803 805 806 808 809 809 811 812 814 815 816 817 818 818 819 820 820 820 821 821 821 820 820 820 820 819 819 819 818 818 817 817 816 816 815 815 814 813 812 810 809 808 806
763 764 766 767 770 771 772 774 776 777 779 780 782 785 788 791 794 797 800 802 804 806 808 808 809 810 811 813 814 815 816 817 818 819 820 820 821 821 821 821 821 821 821 821 820 820 820 819 818 818 818 817 817 816 815 815 814 812 811 810 809 808 807
761 763 764 765 767 769 771 773 775 776 779 780 782 785 788 792 795 798 800 803 804 807 808 808 810 811 812 813 815 816 817 818 819 820 820 821 822 822 822 822 822 821 821 821 821 820 820 820 819 818 818 817 817 816 815 814 813 812 811 810 809 808 807
759 761 762 764 767 769 771 773 774 776 779 781 783 787 789 792 796 798 800 803 805 806 808 809 810 811 812 814 815 816 818 819 820 821 821 822 823 822 822 822 822 822 822 822 821 821 820 820 820 819 818 818 817 816 815 814 813 813 812 811 810 808 806
761 761 762 764 767 769 772 773 774 777 780 782 785 788 790 793 796 798 801 803 804 806 808 809 811 812 813 815 816 817 819 819 820 822 822 823 823 823 823 823 823 823 823 822 822 822 821 820 820 820 819 818 817 816 815 814 814 813 812 811 810 808 806
764 764 764 766 766 768 770 772 774 776 779 783 786 788 791 794 795 798 801 802 804 806 807 809 811 812 813 815 817 818 819 820 821 822 823 823 823 824 824 824 824 823 823 823 823 822 822 821 821 820 820 819 817 816 815 815 814 813 812 811 809 807 806
766 766 769 773 775 774 772 771 773 776 778 782 786 788 790 793 795 797 800 802 804 806 807 809 811 812 814 816 817 819 820 821 821 822 823 824 824 825 825 825 825 824 824 824 824 823 822 822 822 821 820 819 817 816 816 815 814 813 811 810 808 807 805
765 767 770 774 780 784 781 775 773 776 779 782 785 788 790 792 795 797 799 802 804 805 807 809 811 813 815 816 817 819 820 821 821 822 823 824 825 825 826 826 826 825 825 825 824 824 823 823 822 821 820 819 818 817 816 815 814 812 811 810 808 806 805
766 768 770 772 775 782 788 784 777 776 780 783 784 788 790 792 795 798 799 802 804 805 807 809 811 813 815 816 817 818 819 820 821 822 823 825 825 826 826 826 826 826 826 825 825 824 824 823 822 821 820 819 818 817 816 815 814 812 811 810 808 807 805
765 766 769 771 770 774 786 791 784 778 781 784 785 788 790 792 795 798 800 801 803 805 807 809 810 813 814 815 816 817 818 820 821 823 824 825 826 826 826 826 827 827 826 826 826 825 825 824 823 822 820 819 818 817 816 815 814 813 811 810 808 807 805
766 766 768 770 768 769 780 791 791 784 781 785 787 788 790 793 795 797 799 801 803 805 806 808 810 812 813 814 815 816 818 820 822 823 825 825 826 826 826 826 826 827 826 826 826 825 825 825 824 822 821 820 819 818 817 815 814 813 811 810 808 806 805
Wind_Speed
5 4 3 3 4 4 4 6 8 9 10 12 14 13 10 9 9 8 7 5 5 7 7 7 7 8 8 9 9 10 10 11 12 11 11 10 8 7 7 6 6 6 6 6 8 8 7 8 7 7 9 8 7 5 5 4 3 2 2 1 3 4 4
5 4 4 4 4 4 4 6 8 9 11 15 17 14 11 9 8 7 6 5 6 7 8 8 8 9 10 10 11 11 11 11 10 9 9 8 7 7 7 7 6 6 5 4 6 7 6 7 8 8 9 9 7 5 2 4 4 3 1 1 2 3 4
5 5 5 4 4 4 4 6 7 9 13 17 17 14 11 9 8 7 7 7 8 8 8 8 9 9 10 11 11 10 10 10 10 9 9 9 9 8 5 5 5 4 5 6 7 6 6 8 8 9 10 10 7 5 5 6 5 4 3 2 3 5 6
6 5 5 4 4 4 5 6 7 9 13 16 16 13 11 10 8 8 8 8 8 8 8 8 8 8 9 9 10 10 10 9 9 9 9 9 7 3 0 2 5 5 6 9 10 8 9 10 10 10 11 11 9 8 8 7 6 5 4 3 4 6 6
6 6 5 5 4 4 4 7 10 11 13 15 14 13 11 10 8 9 9 7 7 7 6 6 7 7 7 8 9 10 10 10 10 9 7 6 3 3 6 12 16 16 15 17 17 16 16 16 15 14 13 12 10 8 7 6 6 4 3 3 4 6 7
7 6 6 5 6 5 5 9 12 13 15 16 16 15 13 11 9 9 9 7 5 5 5 6 6 6 6 7 8 10 10 10 8 6 5 3 3 8 17 20 20 20 20 19 18 16 15 13 13 12 11 9 8 7 7 5 5 4 3 3 4 7 9
7 7 7 6 6 6 6 10 13 15 17 18 17 16 13 11 9 8 8 6 5 5 6 6 6 6 6 7 9 10 9 7 6 5 4 2 5 14 21 19 18 19 17 17 15 13 12 11 10 10 9 9 9 8 7 5 5 4 4 5 6 8 10
7 7 7 6 6 5 6 10 14 16 18 18 17 17 15 13 10 8 8 8 6 7 8 7 6 7 7 8 10 9 7 6 5 3 2 4 11 18 20 18 18 18 16 15 14 11 10 9 9 9 9 9 9 8 6 5 5 4 5 6 7 8 10
7 6 5 6 5 4 6 11 15 17 17 18 18 17 15 14 13 12 10 9 8 8 8 7 7 8 8 9 10 8 6 5 3 2 5 12 17 19 18 17 17 15 14 14 12 10 9 8 8 7 7 7 7 6 4 3 4 5 5 5 6 8 9
7 7 6 6 4 4 9 13 14 14 14 15 17 17 17 16 15 14 12 11 9 9 9 9 9 10 11 11 10 7 6 5 5 9 16 20 19 17 16 16 14 12 12 11 9 8 7 7 6 6 6 7 6 4 3 3 4 4 4 5 6 8 8
8 8 7 6 5 6 8 10 10 11 11 13 16 17 17 17 16 14 12 13 13 11 11 11 11 12 13 12 11 9 8 6 8 14 19 18 17 17 15 14 12 11 9 8 7 7 6 6 6 5 5 6 5 3 3 3 2 2 4 5 7 7 7
9 8 7 6 7 7 7 8 9 10 10 11 15 17 18 16 15 15 15 16 15 13 13 13 13 13 14 13 12 10 9 7 8 13 17 15 15 15 13 11 10 9 7 6 5 4 4 5 5 4 4 5 4 4 4 3 2 4 5 6 7 6 7
8 7 7 7 8 8 8 9 11 14 16 14 9 9 16 18 16 17 18 17 15 14 15 15 14 14 15 13 11 11 9 6 7 13 15 13 12 11 10 9 8 6 5 3 2 2 3 4 4 4 4 4 4 4 3 3 5 5 6 6 6 8 9
8 9 9 9 10 10 10 10 10 13 17 16 9 1 7 16 19 18 18 17 17 17 16 15 16 16 14 12 12 12 10 7 10 14 12 10 10 9 8 7 6 4 3 1 1 2 2 2 3 5 5 4 4 4 4 6 7 5 5 5 8 10 11
10 10 10 9 10 11 12 11 10 13 18 23 23 15 10 16 21 19 18 19 18 17 16 16 18 16 13 13 13 12 9 9 12 12 10 9 8 7 6 5 4 3 2 1 1 2 2 2 4 6 6 4 2 3 6 9 8 5 4 6 9 12 13
9 9 9 10 10 10 12 11 10 15 18 19 23 22 19 21 23 21 21 21 19 17 17 17 17 15 14 14 13 12 11 11 11 9 8 8 6 5 4 3 3 2 1 1 1 3 3 2 3 6 6 3 1 4 10 10 8 6 6 6 8 12 15
9 9 10 11 10 8 9 10 10 15 20 20 20 20 22 25 26 24 23 22 19 18 17 16 15 15 15 14 12 12 12 11 9 7 7 6 4 4 3 2 2 0 1 1 1 1 2 2 4 5 4 2 2 7 12 10 6 6 6 7 9 13 17
11 12 12 11 10 9 10 12 12 14 20 24 23 21 23 27 27 24 23 22 20 19 17 16 16 16 15 13 13 14 13 10 8 8 7 6 5 4 3 2 1 2 2 0 1 1 2 2 3 2 1 1 5 10 11 7 5 5 7 8 11 15 18
13 13 13 12 12 13 13 13 16 19 24 28 27 25 27 30 29 25 24 22 20 20 18 17 16 17 15 14 14 14 11 9 9 9 8 6 5 4 3 3 2 2 1 1 2 4 4 3 3 2 2 4 8 10 8 5 4 4 7 9 12 16 17
13 13 12 13 13 13 13 17 21 24 27 27 28 28 29 31 29 26 25 23 21 20 19 16 17 18 16 15 14 12 11 11 11 10 9 7 5 5 4 3 2 2 1 2 5 5 5 5 4 5 5 6 8 8 5 4 3 4 7 10 13 15 14
12 12 12 13 13 13 14 14 13 20 28 25 25 28 28 28 28 26 25 23 21 21 18 16 17 18 17 16 14 12 12 12 12 11 9 7 6 5 4 2 1 1 3 5 6 6 7 6 6 7 7 7 7 5 4 3 3 5 8 11 12 11 11
12 13 14 12 10 11 11 7 9 9 24 24 23 27 28 27 27 26 25 23 21 21 18 15 17 19 18 16 15 14 13 13 12 11 9 7 6 4 2 0 2 4 6 6 6 7 8 9 8 8 8 6 5 4 5 4 4 7 9 8 8 8 9
13 13 9 6 5 7 12 9 7 7 17 19 21 26 28 28 27 25 24 23 21 21 19 15 17 20 18 16 15 14 14 13 12 10 9 7 5 2 2 4 6 6 6 6 7 8 10 10 9 9 8 7 5 5 6 6 7 8 6 5 6 7 9
8 8 8 12 12 12 13 13 11 11 16 18 19 23 26 27 26 24 23 22 21 21 19 16 18 20 19 17 16 15 14 12 11 10 9 7 4 3 6 8 8 6 6 7 8 10 9 8 8 7 7 7 6 5 6 8 8 5 3 4 6 8 11
5 9 12 15 18 18 15 13 12 14 16 17 18 21 25 25 24 23 22 21 21 21 20 18 18 20 19 17 16 14 13 11 10 9 8 6 5 7 9 8 7 7 8 9 8 7 7 6 7 7 7 7 6 5 6 8 6 2 2 5 8 11 14
8 12 14 14 16 18 17 15 16 16 16 17 18 21 23 23 23 22 21 21 20 21 22 20 18 19 19 17 15 13 12 10 9 7 6 6 8 10 8 7 8 9 9 7 5 5 6 6 6 6 6 6 5 5 7 7 4 1 3 7 10 14 15
10 14 16 16 16 18 17 17 18 19 17 17 20 21 22 22 22 21 20 20 20 21 22 20 18 18 19 17 14 12 10 8 7 6 7 9 9 9 7 7 8 7 5 5 5 6 7 5 4 4 6 7 7 8 9 8 6 4 7 10 13 14 14
10 12 15 17 18 18 18 17 17 16 16 18 21 22 22 23 21 19 20 20 20 21 21 19 18 19 19 16 13 11 8 7 9 11 11 11 10 9 9 7 5 4 5 6 6 5 5 5 6 9 11 11 10 10 9 8 8 9 11 13 14 14 14
10 11 13 16 18 20 21 19 18 18 19 21 23 23 23 23 21 19 19 20 20 19 18 18 18 19 17 15 12 10 9 11 14 14 12 12 10 9 7 5 4 6 7 6 5 5 7 9 11 12 12 12 12 10 8 8 10 12 12 13 13 13 14
11 13 16 19 22 24 23 21 20 21 22 22 23 24 24 24 21 19 19 19 20 19 18 18 19 18 16 14 12 12 13 14 14 13 12 12 9 7 6 5 6 7 6 4 7 10 12 12 10 11 13 13 12 10 9 10 11 11 12 13 13 14 15
12 15 18 19 22 25 25 24 23 22 22 23 24 24 25 25 22 19 19 19 20 20 20 19 18 17 15 14 15 16 16 15 13 12 12 11 8 6 6 6 6 7 6 6 9 10 11 11 11 12 13 13 12 11 10 11 11 11 12 12 14 15 15
11 17 21 21 22 24 23 24 25 23 21 22 24 25 25 25 23 21 20 21 21 21 21 19 18 17 16 16 18 18 16 14 14 13 11 9 7 7 7 6 7 8 8 8 8 9 10 11 12 12 12 11 11 10 10 10 10 10 12 14 16 16 13
5 9 12 15 21 27 27 24 23 24 22 21 23 25 24 24 24 23 22 23 22 20 19 18 18 18 18 19 19 17 16 15 14 12 10 8 9 9 9 8 8 9 8 8 10 11 11 11 10 10 10 10 10 9 9 9 9 11 14 16 17 15 12
10 12 12 8 5 13 22 25 23 22 23 21 21 24 25 24 25 25 24 23 21 19 18 18 19 20 20 19 18 17 17 16 14 13 12 11 12 12 11 10 10 11 11 10 10 11 12 10 8 7 7 8 8 8 7 8 10 13 16 18 17 14 12
14 18 17 12 5 3 5 18 25 23 22 23 23 24 26 26 25 26 25 22 19 18 18 19 21 20 18 17 17 17 16 15 15 16 16 15 14 12 10 10 11 12 11 10 8 9 10 9 7 5 6 6 7 6 7 9 12 15 15 15 13 13 15
17 20 19 19 15 3 7 6 23 27 23 23 25 25 26 26 25 24 23 20 18 18 19 20 20 17 15 15 17 17 16 17 18 18 16 14 14 12 11 10 8 8 9 9 7 7 7 7 7 7 7 7 6 5 7 11 13 14 12 11 12 14 16
17 20 19 18 22 17 3 3 14 26 25 23 25 26 24 25 25 23 20 19 18 19 20 19 17 15 14 15 17 19 19 20 19 16 14 14 13 12 11 9 8 7 6 5 5 5 5 5 7 9 9 7 6 6 8 11 11 10 10 11 14 16 15
17 20 21 19 22 24 14 3 7 21 26 24 23 24 23 23 24 23 20 19 20 20 19 17 16 17 19 20 21 22 22 21 19 17 15 13 11 9 8 9 9 8 6 5 4 3 3 4 6 9 8 8 9 10 10 10 10 9 10 14 17 17 14
Wind_Direction
145 152 156 153 154 159 163 151 154 159 147 145 154 157 157 147 140 144 143 140 138 131 133 135 126 124 125 123 133 145 155 160 161 167 176 179 180 186 195 197 198 199 193 184 188 189 181 182 180 174 177 174 160 136 105 114 135 131 164 271 328 345 345
150 156 159 158 163 159 156 160 167 165 146 142 148 151 152 147 142 143 137 128 130 129 130 129 124 126 128 126 128 133 142 149 151 155 164 166 164 166 168 171 180 193 205 200 189 187 186 192 194 187 189 192 194 199 154 131 136 111 106 355 11 11 7
156 159 159 162 171 158 154 170 179 165 145 142 146 149 152 152 148 149 145 135 128 126 124 123 125 127 127 127 128 131 137 143 146 148 149 149 146 147 161 191 212 232 234 210 195 200 202 203 210 210 207 202 192 188 164 137 125 98 95 94 61 40 21
161 159 154 156 161 151 153 170 175 158 146 147 149 150 152 151 149 151 150 142 134 132 130 126 127 126 125 125 126 131 137 138 142 143 143 144 139 129 214 194 169 162 170 166 162 166 162 159 167 178 180 168 145 136 134 127 124 116 108 99 64 48 38
159 153 151 151 149 153 154 159 162 151 144 148 149 148 149 148 149 150 152 151 143 140 138 134 133 127 123 125 126 131 134 134 136 138 137 134 113 88 111 125 131 131 135 140 138 134 132 130 132 140 145 142 132 125 124 119 120 116 96 82 60 49 46
162 158 159 158 153 159 158 156 158 151 146 149 147 147 148 148 148 151 155 158 152 148 146 141 140 129 121 128 135 137 136 137 136 130 125 107 82 123 128 124 123 122 125 133 135 135 135 129 123 125 127 127 123 121 124 120 111 102 83 71 52 39 32
166 164 161 160 159 161 157 151 147 144 147 149 145 144 146 146 146 152 158 159 158 153 147 146 147 139 135 141 146 145 142 140 131 124 134 118 114 131 130 122 119 120 123 132 139 143 142 132 121 119 120 120 117 117 122 120 109 100 76 58 46 34 26
165 164 161 159 163 162 150 143 137 135 141 144 143 143 144 146 151 160 165 168 170 160 150 153 158 153 152 153 154 153 148 138 127 128 145 133 132 131 127 121 123 126 129 133 137 139 135 128 120 118 121 117 112 113 113 109 106 87 56 55 54 40 30
152 150 155 159 163 152 133 135 135 134 137 142 145 145 145 151 158 162 168 173 174 171 165 164 165 162 159 159 159 158 152 138 123 137 141 137 138 133 125 125 129 131 133 131 130 128 121 116 109 107 113 113 108 107 99 96 100 75 55 62 54 39 33
142 142 156 164 153 127 125 128 131 134 135 137 143 148 150 152 153 155 164 171 170 172 171 168 170 169 166 166 165 163 162 147 114 125 135 137 137 133 128 131 133 134 134 128 124 120 106 94 85 86 101 112 111 102 90 103 104 77 66 64 47 39 35
145 150 160 159 135 121 123 123 125 131 130 129 136 145 149 150 152 156 166 168 165 167 168 168 173 175 175 176 175 176 173 152 122 127 134 136 134 133 133 135 134 132 129 123 117 109 95 88 87 92 108 117 116 103 91 103 107 89 84 66 48 39 26
152 155 148 138 126 121 121 117 110 101 98 114 132 143 146 147 152 157 163 167 165 167 168 168 173 178 180 180 179 180 172 152 134 135 136 137 136 136 138 137 136 130 122 119 117 111 103 94 91 105 124 124 119 104 92 109 132 112 88 64 48 34 12
145 140 132 131 126 119 112 101 82 65 59 60 73 122 144 148 155 158 160 165 167 167 167 168 173 176 177 179 181 178 170 161 154 147 142 142 141 141 141 138 134 128 119 118 123 127 118 91 86 110 123 122 112 93 94 135 141 113 87 63 45 29 14
135 132 134 135 127 121 116 109 101 97 100 104 100 91 154 153 159 163 163 166 166 167 168 169 172 173 175 182 186 181 173 165 158 151 148 149 147 143 142 136 130 123 124 139 153 158 151 93 109 131 125 110 89 82 120 151 143 118 88 64 42 29 22
143 141 136 126 118 125 134 137 141 139 137 142 150 164 176 163 161 165 167 166 165 167 170 169 171 174 179 185 187 184 177 162 155 153 153 155 151 145 141 135 131 128 139 166 177 190 190 145 144 151 142 126 87 108 146 148 136 113 86 60 42 33 27
144 137 129 128 134 148 152 151 150 145 144 152 158 162 167 164 162 166 167 166 167 170 170 170 174 179 184 187 188 185 176 166 161 161 164 165 159 153 151 145 142 141 168 207 210 209 207 191 178 171 164 162 159 152 152 144 127 111 96 71 47 33 22
135 135 144 152 153 161 159 151 158 157 152 159 166 165 164 162 163 167 168 167 171 173 171 176 183 185 188 193 191 183 176 175 180 184 180 177 176 175 179 176 165 23 329 288 250 215 207 199 186 183 191 232 206 168 158 144 119 101 82 65 46 27 16
145 151 163 163 157 169 171 165 178 173 156 159 168 169 165 162 162 166 168 170 175 176 177 184 188 190 195 196 189 182 181 185 194 199 193 188 193 201 208 209 230 326 338 352 61 114 125 128 162 189 259 249 186 172 158 132 104 89 62 49 38 22 14
154 163 171 169 172 180 180 183 191 176 159 161 168 169 167 164 163 167 170 173 177 178 182 190 192 195 196 191 185 183 185 191 197 201 202 201 207 215 224 244 281 333 356 60 94 112 104 74 65 69 83 152 168 165 146 112 101 85 52 39 29 17 11
160 172 180 179 185 188 185 196 195 169 158 165 166 165 168 167 166 170 171 173 178 180 186 192 194 195 192 186 185 185 187 194 197 200 204 209 220 232 250 279 308 354 45 102 109 97 62 45 77 105 114 134 149 148 126 102 104 73 42 27 17 8 6
170 178 188 188 197 198 193 213 210 160 154 165 165 162 165 166 166 168 170 174 179 182 189 195 194 192 189 188 191 191 191 196 198 199 205 212 226 247 272 298 346 67 111 116 100 65 48 64 105 119 118 121 126 121 95 94 89 40 19 12 6 2 2
183 188 194 192 201 197 183 236 283 164 155 162 161 159 162 163 164 166 169 175 180 183 189 196 193 189 188 192 197 198 199 201 201 202 208 216 224 243 275 188 131 130 127 110 77 64 81 96 102 102 101 99 94 81 71 67 35 8 1 2 3 357 354
189 191 182 144 146 179 176 197 253 190 160 157 155 157 160 162 163 165 169 175 181 185 191 195 192 189 190 195 200 201 202 202 204 206 209 214 221 215 145 137 134 128 112 89 81 90 98 98 92 85 75 65 59 59 54 31 6 358 351 354 359 352 351
185 168 136 125 144 175 186 187 192 178 164 156 152 156 159 162 164 166 170 176 182 186 193 198 195 191 193 197 199 201 204 206 210 212 207 206 207 166 139 132 124 111 97 97 104 100 90 81 80 71 55 50 49 38 24 7 357 351 335 344 355 356 356
145 139 149 159 168 178 184 179 173 170 164 156 153 156 159 163 166 168 172 179 184 189 197 202 199 194 194 196 198 202 207 209 214 216 210 200 170 144 136 127 115 110 108 109 105 87 67 61 71 67 53 47 39 19 10 3 355 333 316 347 358 357 355
148 146 163 176 177 178 178 173 169 168 164 158 157 159 160 164 167 171 177 182 186 193 202 205 202 197 195 194 196 201 205 209 216 219 207 180 151 138 133 123 121 122 117 106 88 67 62 72 80 69 46 38 34 30 25 18 17 23 358 1 359 354 353
157 158 169 175 173 172 173 173 173 170 165 162 161 162 164 166 168 172 180 185 191 199 205 208 205 197 193 192 192 196 202 205 204 189 165 155 147 139 134 129 127 122 107 91 86 78 72 69 64 56 55 55 50 44 39 37 43 39 9 358 355 356 1
154 158 167 171 170 170 171 173 175 170 164 165 166 167 169 170 171 176 182 188 196 202 206 208 203 191 187 187 185 188 192 183 169 158 147 146 147 142 135 131 121 103 97 97 95 81 62 60 72 77 75 66 51 43 43 41 30 14 3 1 5 13 19
158 157 167 172 174 176 174 171 172 171 168 168 169 170 172 173 175 179 184 191 199 204 203 199 191 182 178 178 177 178 178 167 159 154 150 151 152 147 139 126 104 106 107 96 87 90 88 87 89 81 69 57 47 41 37 29 18 12 14 20 25 26 23
164 166 173 177 177 177 173 169 169 168 167 168 170 171 175 178 178 179 185 192 197 195 188 180 175 172 171 170 169 168 164 162 161 162 164 163 159 151 145 130 121 129 130 105 100 104 96 88 82 71 59 51 45 38 30 27 29 32 35 34 28 21 16
174 171 170 169 170 171 170 166 164 162 163 168 171 173 178 181 181 179 180 185 186 181 174 170 168 168 168 168 166 163 161 162 165 167 167 166 163 155 150 142 137 141 141 122 110 102 91 82 76 67 58 47 36 32 35 40 45 44 36 27 18 14 14
171 167 165 162 162 166 167 163 158 157 160 165 169 174 179 182 183 180 175 174 175 173 170 169 169 169 170 169 165 163 164 166 166 165 166 168 168 157 144 137 132 130 129 123 109 93 83 85 81 69 56 43 34 35 42 48 46 36 23 15 12 12 15
116 140 149 155 160 163 162 158 156 157 157 161 169 173 177 181 182 179 173 168 168 170 171 171 171 171 169 168 166 168 172 171 167 166 168 168 162 146 127 117 113 110 111 115 108 96 89 88 86 74 55 40 35 40 49 49 35 19 11 8 9 11 16
71 72 74 75 122 160 161 156 154 155 153 156 165 170 171 173 173 171 169 168 169 173 174 172 172 171 169 170 173 176 178 176 169 160 154 150 147 135 117 107 102 96 99 105 103 98 97 97 94 80 51 36 38 46 49 38 21 10 4 4 7 12 14
88 92 102 109 87 335 198 158 148 145 146 150 157 163 163 163 165 165 165 168 173 176 174 171 170 171 175 180 183 181 179 176 168 158 149 143 140 130 118 113 108 101 105 115 109 99 101 102 96 75 44 35 42 43 30 19 13 8 6 9 14 18 16
103 105 117 133 133 93 313 175 144 139 140 145 150 155 156 156 160 165 166 170 175 174 169 168 170 173 181 189 187 183 180 172 163 158 152 146 142 137 133 132 129 120 121 128 128 119 111 100 79 53 35 38 52 44 19 12 12 12 19 29 33 28 25
124 121 125 134 132 121 79 256 147 137 137 142 147 150 153 156 160 164 167 170 174 173 170 172 173 171 173 176 175 173 170 164 157 156 156 153 152 150 148 152 159 155 147 145 144 140 127 98 62 40 36 51 65 47 22 18 21 27 39 43 37 32 31
131 129 130 131 127 124 127 184 163 139 138 143 147 149 153 157 161 165 170 173 177 178 177 177 175 166 161 160 158 156 156 153 152 154 157 160 164 167 170 177 180 178 179 184 182 166 136 96 58 43 50 61 52 37 31 32 35 41 46 42 35 32 32